Anchorage, AK

2:12 AM AKST on February 12, 2016 (GMT -0900)
Merrill

Weather History for PAMR - December, 2011

Change the Weather History Date:

Sunday, December 4, 2011

  Actual Average Record
Temperature  
Mean Temperature 44 °F -  
Max Temperature 53 °F 22 °F 53 °F (2011)
Min Temperature 34 °F 11 °F -11 °F (2012)
Degree Days  
Heating Degree Days 20    
Moisture  
Dew Point 28 °F    
Average Humidity 55    
Maximum Humidity 81    
Minimum Humidity 41    
Precipitation  
Precipitation 0.08 in - - ()
Sea Level Pressure  
Sea Level Pressure 29.74 in    
Wind  
Wind Speed 13 mph (South)    
Max Wind Speed 22 mph    
Max Gust Speed 39 mph    
Visibility 9 miles    
Events Rain    
Averages and records for this station are not official NWS values.
T = Trace of Precipitation, MM = Missing Value Source: NWS Daily Summary

Daily Weather History Graph

Daily Weather History Graph

Search for Another Location

Airport or City:

Trip Planner

Search our weather history database for the weather conditions in past years. The results will help you decide how hot, cold, wet, or windy it might be!

Date:

Astronomy

Dec. 04, 2011 Rise Set
Actual Time 9:51 AM AKST 3:47 PM AKST
Civil Twilight 8:52 AM AKST 4:46 PM AKST
Nautical Twilight 7:54 AM AKST 5:44 PM AKST
Astronomical Twilight 7:01 AM AKST 6:37 PM AKST
Moon 1:34 PM AKST (12/4) 3:06 AM AKST (12/4)
Length of Visible Light 7h 54m
Length of Day
5h 56m
Waxing Gibbous, 73% of the Moon is Illuminated
Dec 4
Waxing Gibbous
Dec 10
Full
Dec 17
Last Quarter
Dec 24
New
Dec 31
First Quarter

Hourly Weather History & Observations

Time (AKST) Temp. Windchill Dew Point Humidity Pressure Visibility Wind Dir Wind Speed Gust Speed Precip Events Conditions
12:39 AM 48.2 °F - 33.8 °F 58% 29.83 in 10.0 mi SSE 11.5 mph 26.5 mph 0.02 in Rain Light Rain
12:53 AM 48.0 °F - 33.1 °F 56% 29.84 in 10.0 mi SE 18.4 mph 25.3 mph 0.02 in Rain Light Rain
1:53 AM 45.0 °F 40.1 °F 32.0 °F 60% 29.81 in 10.0 mi NE 9.2 mph 24.2 mph 0.00 in   Overcast
3:53 AM 51.1 °F - 30.0 °F 44% 29.70 in 10.0 mi South 9.2 mph 39.1 mph N/A   Overcast
4:53 AM 53.1 °F - 30.0 °F 41% 29.64 in 10.0 mi South 11.5 mph 34.5 mph N/A   Overcast
5:53 AM 53.1 °F - 30.0 °F 41% 29.60 in 10.0 mi SSE 19.6 mph 33.4 mph N/A   Overcast
6:53 AM 50.0 °F - 28.9 °F 44% 29.55 in 10.0 mi ESE 13.8 mph 27.6 mph N/A   Overcast
7:53 AM 48.0 °F - 30.0 °F 50% 29.55 in 10.0 mi South 10.4 mph 20.7 mph N/A   Overcast
8:53 AM 48.0 °F - 30.0 °F 50% 29.55 in 10.0 mi Variable 3.5 mph - 0.00 in Rain Light Rain
9:53 AM 46.0 °F 38.8 °F 33.1 °F 61% 29.54 in 6.0 mi SE 18.4 mph 29.9 mph 0.01 in Rain Light Rain
10:53 AM 44.1 °F 36.5 °F 33.1 °F 65% 29.61 in 10.0 mi SSE 17.3 mph 27.6 mph 0.00 in Rain Light Rain
11:53 AM 43.0 °F 37.7 °F 33.1 °F 68% 29.65 in 10.0 mi South 9.2 mph 17.3 mph 0.01 in Rain Light Rain
12:34 PM 39.2 °F 30.5 °F 33.8 °F 81% 29.71 in 4.0 mi South 16.1 mph 31.1 mph 0.03 in Rain Rain
12:53 PM 41.0 °F 33.5 °F 34.0 °F 76% 29.72 in 5.0 mi South 13.8 mph 28.8 mph 0.03 in Rain Light Rain
1:53 PM 41.0 °F 32.2 °F 32.0 °F 70% 29.75 in 10.0 mi South 18.4 mph 25.3 mph 0.00 in   Overcast
2:53 PM 39.9 °F 30.0 °F 21.9 °F 49% 29.78 in 10.0 mi South 21.9 mph 36.8 mph 0.01 in   Overcast
3:53 PM 39.0 °F 29.3 °F 21.0 °F 49% 29.81 in 10.0 mi South 19.6 mph 33.4 mph N/A   Overcast
4:53 PM 39.0 °F 31.4 °F 21.0 °F 49% 29.82 in 10.0 mi South 12.7 mph 21.9 mph N/A   Clear
5:53 PM 39.0 °F 32.8 °F 21.0 °F 49% 29.83 in 10.0 mi South 9.2 mph 19.6 mph N/A   Clear
6:53 PM 39.0 °F 30.6 °F 21.0 °F 49% 29.83 in 10.0 mi South 15.0 mph 20.7 mph N/A   Partly Cloudy
7:53 PM 39.0 °F 31.8 °F 19.9 °F 46% 29.83 in 10.0 mi South 11.5 mph 23.0 mph N/A   Clear
8:53 PM 37.9 °F 30.9 °F 21.9 °F 53% 29.83 in 10.0 mi South 10.4 mph 20.7 mph N/A   Clear
9:53 PM 37.0 °F 27.0 °F 23.0 °F 57% 29.86 in 10.0 mi South 18.4 mph 27.6 mph N/A   Partly Cloudy
10:53 PM 36.0 °F 25.6 °F 23.0 °F 59% 29.87 in 10.0 mi South 18.4 mph 31.1 mph N/A   Scattered Clouds
11:53 PM 34.0 °F 25.5 °F 21.0 °F 59% 29.90 in 10.0 mi South 11.5 mph 24.2 mph N/A   Clear